Location: �terpigny
(49.8910°N, 2.9249°E)
Time: 21:42:55
(UTC+00:00)

DIWATA 2B (PO-101) - Pass Details

Date: 03 July 2022
Orbit: 583 x 599 km, 98.0° (Epoch: 07 August)

Event Time Altitude Azimuth Distance (km) Brightness Sun altitude
Exits shadow 01:56:11 16° 186° (S) 1,586 ? -12.1°
Maximum altitude 01:59:24 53° 259° (W) 746 ? -11.9°
Drops below altitude 10° 02:03:33 10° 337° (NNW) 1,951 ? -11.6°
Sets 02:05:47 0° 343° (NNW) 2,858 ? -11.4°
